Cloud_Cover
100 100 100 56 2 0 0 0 2 4 5 12 6 20 6 2 0 0 0 0 0 0 0 0 0 0 0 0 0 0 0 0 0 0 0 0 0 0 0 2 0 0 0 0 0
100 100 100 100 69 3 2 3 0 12 1 2 12 16 2 2 2 0 0 0 0 0 0 0 0 0 0 0 0 0 0 0 0 0 0 0 0 0 0 0 0 3 0 0 0
100 100 100 100 100 23 6 3 5 3 0 5 5 40 5 10 2 0 0 0 0 0 0 0 0 0 0 0 0 0 0 0 0 0 0 0 0 0 0 0 0 0 0 0 0
100 100 100 100 100 100 54 25 24 9 78 100 100 100 25 2 0 0 0 0 0 0 0 0 0 0 0 0 0 0 0 0 0 0 0 0 0 0 0 0 0 0 0 0 0
100 100 100 100 100 100 100 87 74 18 16 82 100 100 71 4 0 0 0 0 0 0 0 0 0 0 0 0 0 0 0 0 0 0 0 0 0 0 0 0 0 0 0 0 0
100 100 100 100 100 98 100 45 100 100 51 66 96 94 50 3 0 0 0 0 0 0 0 0 0 0 0 0 0 0 0 0 0 0 0 0 0 0 0 0 0 0 0 0 0
100 100 100 100 100 100 35 96 100 100 86 90 100 100 44 5 4 0 0 0 0 0 0 0 0 0 0 0 0 0 0 0 0 0 0 0 0 0 4 5 0 0 0 0 0
96 100 100 100 21 16 0 0 0 16 23 100 15 92 100 17 4 0 0 0 0 4 0 0 0 0 0 0 0 0 0 0 0 0 0 0 0 4 14 15 7 0 0 0 0
73 97 98 29 11 16 0 0 0 26 26 9 35 100 100 100 75 2 0 0 0 0 0 1 0 0 3 5 7 5 2 11 0 4 0 8 3 48 100 100 100 99 20 4 50
7 79 30 8 0 0 0 12 10 39 12 0 66 100 100 100 49 19 1 0 0 4 4 0 5 5 5 8 71 64 42 8 10 9 99 100 19 98 98 100 100 100 100 98 98
22 14 0 0 0 0 48 0 0 0 0 0 3 5 6 19 2 3 0 0 5 5 5 5 5 100 42 90 57 5 43 20 5 1 66 96 87 69 68 95 100 100 100 100 72
100 99 35 5 1 0 12 0 0 0 0 0 0 5 5 5 5 4 5 23 12 30 7 5 46 8 67 100 82 56 93 100 66 100 100 98 34 6 93 100 100 57 61 87 100
100 100 77 5 5 35 1 0 0 0 0 0 0 5 5 3 5 5 6 19 28 46 45 99 75 13 100 100 100 100 84 51 11 38 100 100 88 99 100 100 100 84 100 100 100
100 100 98 2 48 0 3 5 2 0 15 15 0 2 2 5 3 5 5 3 5 80 96 96 6 0 11 19 66 100 81 100 100 100 100 32 98 94 27 5 7 1 1 1 4
100 100 100 100 95 24 4 6 27 5 96 60 5 5 1 46 73 1 2 5 80 45 2 95 1 0 0 0 0 0 0 0 0 0 1 0 3 95 18 49 1 0 0 0 0
100 100 97 12 6 20 81 97 100 89 100 57 8 5 5 5 8 9 5 5 8 32 5 9 0 0 0 0 0 0 0 0 0 0 0 0 0 95 59 82 4 0 0 0 0
69 86 57 0 1 4 5 5 26 74 100 60 30 36 42 56 46 7 24 10 5 31 20 16 4 2 0 3 3 3 5 5 2 52 52 10 10 100 2 13 0 0 0 0 0
0 28 2 0 0 0 0 0 20 83 98 3 5 5 5 4 3 0 5 13 2 0 3 64 89 0 0 0 0 0 0 0 0 7 86 14 6 100 4 4 0 0 0 0 0
32 0 0 0 0 0 0 0 5 81 72 3 0 0 4 0 0 0 0 0 2 0 0 0 1 0 0 0 0 0 0 0 0 0 0 0 54 0 0 0 0 0 0 0 0
5 3 1 0 0 0 0 0 77 90 11 1 1 5 5 24 0 0 0 0 0 0 0 0 0 0 0 0 0 0 0 0 1 0 0 6 81 100 7 0 0 0 0 0 0
35 63 8 5 5 5 4 1 29 24 0 0 0 5 5 0 0 0 0 0 0 0 0 0 0 0 0 0 0 0 0 0 0 0 0 0 24 100 2 0 4 2 0 0 0
100 79 58 64 92 44 43 5 41 40 2 0 0 0 4 1 0 0 0 0 0 0 0 0 1 4 2 7 6 1 0 0 0 0 2 1 0 0 0 0 0 0 0 0 0
58 55 94 76 98 98 71 63 38 5 5 15 11 4 0 0 0 0 0 0 1 7 9 72 100 100 100 8 4 4 5 4 0 0 0 0 48 1 0 0 0 0 0 0 0
6 12 38 21 78 99 88 100 99 96 59 50 70 69 36 13 8 15 13 21 93 100 100 70 58 46 78 65 64 64 5 2 0 0 0 3 57 8 0 1 2 1 0 0 0
0 1 6 26 97 92 98 100 100 100 100 100 100 100 96 86 93 100 100 94 100 100 99 23 41 58 11 8 5 1 0 3 5 3 4 4 5 16 62 100 49 5 5 5 5
5 0 0 1 5 62 97 100 100 100 100 100 100 100 100 100 100 100 100 100 100 66 37 3 0 5 5 5 5 5 5 5 4 5 5 5 11 15 29 8 80 5 0 3 5
3 3 5 5 1 5 26 100 100 100 100 100 100 100 100 100 100 6 90 44 88 5 34 69 81 92 42 44 92 100 90 42 5 19 32 51 79 100 47 30 8 5 2 5 5